Retour au catalogue

CZ-6A DEB

ActifPO
NORAD 60780·DEBRIS·🇨🇳 China

Lancé Aug 6, 2024 depuis Taiyuan Satellite Launch Center

Loading…

Prochains Passages (prochaines 24 heures)

TLE

FraisSource: Space-Track

Époque: Sep 14, 2026, 11:04 UTC

1 60780U 24140FF  26257.46161637  .00000304  00000-0  92664-4 0  9996
2 60780  88.9603 258.8010 0084344  68.7653 292.2530 14.37275211109601

Suivez CZ-6A DEB en temps réel avec AllMySat

Download on the App Store